Погода в Силвассе

Индия     20°16′50″N   73°00′03″E
темп.,
°C
ветер,
м/с
пор.,
м/с
влажн.,
%
обл.,
%
осадки,
мм/ч
давл.,
гПа
погр.,
м
4 марта, чт
чт423:30+25всв22170 0.0 101237
02:30+24с22170 0.0 101131
05:30+22св23140 0.0 101033
08:30+27св23110 0.0 1013137
11:30+38ссв4561 0.0 10141755
14:30+39сз7580 0.0 10102227
17:30+35сз69120 0.0 1009591
20:30+25в01280 0.0 101136
5 марта, пт
пт523:30+26в22170 0.0 101229
02:30+22с11200 0.0 101128
05:30+22вюв22190 0.0 101129
08:30+27ссв23140 0.0 1014157
11:30+37ссв56100 0.0 10141380
14:30+39сз6490 0.0 10102324
17:30+34сз68160 0.0 1009490
20:30+26св11280 0.0 101137
6 марта, сб
сб623:30+24зюз11370 0.0 101244
02:30+22в11560 0.0 101129
05:30+22вюв12470 0.0 101030
08:30+27вюв12260 0.0 1014110
11:30+36ссз44150 0.0 10141257
14:30+36сз65190 0.0 1010821
17:30+34сз57170 0.0 1009444
20:30+25ююз12320 0.0 101129
7 марта, вс
вс723:30+22ю11600 0.0 101251
02:30+22юв22590 0.0 101133
05:30+21вюв11600 0.0 101030
08:30+26юв12410 0.0 1013151
11:30+35сз34170 0.0 10131057
14:30+36сз55130 0.0 10091153
17:30+33зсз45190 0.0 1008477
20:30+23з12540 0.0 101048
8 марта, пн
пн823:30+22ююв12660 0.0 101137
02:30+21юв22710 0.0 101031
05:30+20вюв11700 0.0 101031
08:30+25юв11460 0.0 1013151
11:30+35с33170 0.0 10131138
14:30+37сз64160 0.0 10101455
17:30+32сз56230 0.0 1008363
20:30+24зсз11380 0.0 101143